Погода в Шемонаихе

Казахстан     50°37′30″N   81°54′42″E
темп.,
°C
ветер,
м/с
пор.,
м/с
влажн.,
%
обл.,
%
осадки,
мм/ч
давл.,
гПа
погр.,
м
20 января, ср
ср2000:00−13ссв228996 0.0 102323
03:00−14св118395 0.0 102321
06:00−14юв118296 0.0 102421
09:00−12ююв2281100 0.0 102321
12:00−9ююв1284100 0.0 102498
15:00−8ююв2489100 0.0 1022160
18:00−7ююв3791100 0.0 1022190
21:00−4ю61489100 0.0 1022552
21 января, чт
чт2100:00−3ю71396100 1.6 1022508
03:00−4ю61296100 1.1 1022415
06:00−4ю41096100 2.0 1024371
09:00−4ю3897100 0.3 1023311
12:00−3ю4896100 0.9 1023431
15:00−3ю4995100 0.3 1020462
18:00−4ююв2397100 0.4 101856
21:00−5ю2396100 0.1 101554
22 января, пт
пт2200:00−4ююв3596100 0.2 1012168
03:00−6ю3391100 0.0 100948
06:00−6ю3391100 0.0 100758
09:00−6ю2490100 0.0 1007109
12:00−4зюз61289100 0.1 1008610
15:00−10сз3695100 2.8 1012284
18:00−12сз5895100 5.4 1017392
21:00−14зсз4796100 0.9 1022388
23 января, сб
сб2300:00−17зюз2497100 1.4 1027168
03:00−18ю3697100 0.2 1030163
06:00−18ююв41097100 0.3 1030314
09:00−17ююв31197100 0.3 1032394
12:00−15ю71194100 0.6 1032528
15:00−15ю71194100 0.3 1031623
18:00−14ю41096100 0.8 1033592
21:00−14ю51095100 0.8 1035656
24 января, вс
вс2400:00−15ю41096100 1.4 1035454
03:00−15ю3996100 0.5 1036381
06:00−15ю3896100 1.1 1037306
09:00−16ююз2597100 0.5 1040203
12:00−18сз3496100 1.0 1042234
15:00−20сз2396100 0.2 1043234
18:00−22ссв0098100 0.3 104520
21:00−22ю2298100 0.0 104622